Regional Weather Roundup
Issued by NWS

Home | Current Version | Previous Version | Graphics & Text | Print | Product List | Glossary On
Versions: 1 2 3 4 5 6 7 8 9 10 11 12 13 14 15 16 17 18 19 20 21 22 23 24 25 26 27 28 29 30 31 32 33 34 35 36 37 38 39 40 41 42 43 44 45 46 47 48 49 50
000
ASUS43 KIND 291859
RWRIN

WEATHER ROUNDUP FOR INDIANA
NATIONAL WEATHER SERVICE INDIANAPOLIS IN
300 PM EDT FRI APR 29 2016

NOTE: "FAIR" INDICATES FEW OR NO CLOUDS BELOW 12,000 FEET WITH NO
SIGNIFICANT WEATHER AND/OR OBSTRUCTIONS TO VISIBILITY.

* - STATION DOES NOT REPORT WEATHER SUCH AS PRECIPITATION OR FOG.

+ - STATION NOT QUALITY CONTROLLED BY THE NATIONAL WEATHER SERVICE.
    USE DATA WITH CAUTION...ESPECIALLY DEWPOINT AND RELATIVE
    HUMIDITY OBSERVATIONS.

INZ001>003-010>013-019-020-292000-
NORTHWEST INDIANA

CITY           SKY/WX    TMP DP  RH WIND       PRES   REMARKS
GARY /AIRPORT/ CLOUDY    46  46 100 N9        30.12S

$$

LMZ046-743>745-292000-
SOUTHERN LAKE MICHIGAN

STATION/POSITION TIME  TEMP    WIND        PRES    WAVE
                       AIR SEA DIR/SP/G            HT
                 (UTC) (F)     (DEG/KT/KT) (MB)    (FT)
BURNS HARBOR     1819   42     340/  7/ 14 1020.3R
MICHIGAN CITY    1800   42     320/  9/ 10   N/A

$$

INZ004-005-014>016-021>024-292000-
NORTH CENTRAL INDIANA

CITY           SKY/WX    TMP DP  RH WIND       PRES   REMARKS
ELKHART        CLOUDY    52  46  82 CALM      30.08R
GOSHEN         CLOUDY    52  44  74 VRB3      30.08R
SOUTH BEND     CLOUDY    49  44  83 NW8       30.08S

$$

INZ006>009-017-018-025>027-292000-
NORTHEAST INDIANA

CITY           SKY/WX    TMP DP  RH WIND       PRES   REMARKS
ANGOLA *+      CLOUDY    52  39  62 CALM      30.06S
FORT WAYNE     CLOUDY    53  45  74 N6        30.07F

$$

INZ028-029-035-036-043>045-051>053-292000-
WEST CENTRAL INDIANA

CITY           SKY/WX    TMP DP  RH WIND       PRES   REMARKS
CRAWFORDSVL +  PTSUNNY   56  49  75 CALM      30.06S
GREENCASTLE +  CLOUDY    61  52  72 CALM      30.06S
LAFAYETTE      CLOUDY    56  47  71 N8        30.06F
TERRE HAUTE    CLOUDY    64  49  57 NE6       30.04S

$$

INZ030>032-037>040-046>048-054>057-064-065-292000-
CENTRAL INDIANA

CITY           SKY/WX    TMP DP  RH WIND       PRES   REMARKS
CP ATTERBURY + PTSUNNY   64  46  52 NW5       30.05S
COLUMBUS       SUNNY     64  50  59 N5        30.04F
INDIANAPOLIS   CLOUDY    62  46  55 CALM      30.03F
-EAGLE CREEK   CLOUDY    62  48  60 NW6       30.04F
KOKOMO *+      CLOUDY    57  46  67 NW8       30.06S
SHELBYVILLE    PTSUNNY   66  47  50 NW9       30.04S

$$

INZ033-034-041-042-049-050-058-059-292000-
EAST CENTRAL INDIANA

CITY           SKY/WX    TMP DP  RH WIND       PRES   REMARKS
MUNCIE         CLOUDY    60  48  64 N8        30.05S

$$

INZ060-061-067>069-081>083-085>088-292000-
SOUTHWEST INDIANA

CITY           SKY/WX    TMP DP  RH WIND       PRES   REMARKS
EVANSVILLE     CLOUDY    66  49  54 CALM      30.06R
HUNTINGBURG *+ CLOUDY    64  52  63 CALM      30.05S

$$

INZ062-063-066-070>080-084-089>092-292000-
SOUTH CENTRAL AND SOUTHEAST INDIANA

CITY           SKY/WX    TMP DP  RH WIND       PRES   REMARKS
BLOOMINGTON    CLOUDY    65  46  50 CALM      30.04S
MADISON *+     PTSUNNY   68  45  42 NW7       30.05F
SEYMOUR +      CLOUDY    70  48  46 CALM      30.03F

$$





USA.gov is the U.S. government's official web portal to all federal, state and local government web resources and services.